Home > Weather > Nadi > Past weeks

Flag for Fiji Weather for the Past 2 Weeks in Nadi, Fiji

Now
73 °F

Passing clouds.


Feels Like: 72 °F
Forecast: 74 / 83 °F
Wind: 6 mph from Southeast

Location: Nandi

Current Time: May 1, 2016 at 10:45:35 PM

Latest Report: May 1, 2016 at 10:00 PM


Visibility: N/A

Pressure: 29.92 "Hg

Humidity: 89%

Dew Point: 70 °F

Location of NadiLocation

Historic Weather in Nadi — Graph

°F

Nadi Temperature Yesterday

Maximum temperature yesterday: 86 °F (at 12:00 PM)
Minimum temperature yesterday: 70 °F (at 6:00 AM)
Average temperature yesterday: 78 °F

High & Low Weather Summary for the Past Weeks

 TemperatureHumidityPressure
High90 °F (Apr 17, 2:00 PM)100% (Apr 17, 12:00 AM)30.01 "Hg (Apr 17, 12:00 AM)
Low70 °F (Apr 24, 5:00 AM)52% (Apr 27, 1:00 PM)29.59 "Hg (Apr 17, 2:00 AM)
Average79 °F76%29.84 "Hg
* Reported Apr 16 10:00 PM — May 1 10:00 PM, Nadi, Weather by CustomWeather, © 2016

Note: Actual official high and low records may vary slightly from our data, if they occured in-between our weather recording intervals... More about our weather records

Advertising

Nadi Weather History for the Previous 24 Hours

Scroll right to see more
 ConditionsComfort  
Time TempWeatherWind HumidityBarometerVisibility
10:00 PM
Sun, May 1
73 °FPassing clouds.6 mph89%29.92 "HgN/A
9:00 PM77 °FPassing clouds.7 mph79%29.92 "HgN/A
8:00 PM77 °FPassing clouds.5 mph79%29.89 "HgN/A
7:00 PM77 °FPartly cloudy.5 mph79%29.89 "HgN/A
6:00 PM79 °FPartly cloudy.5 mph79%29.86 "HgN/A
5:00 PM82 °FBroken clouds.7 mph62%29.83 "HgN/A
4:00 PM82 °FScattered clouds.10 mph62%29.83 "HgN/A
3:00 PM84 °FScattered clouds.10 mph58%29.83 "HgN/A
2:00 PM84 °FScattered clouds.13 mph58%29.83 "HgN/A
1:00 PM82 °FScattered clouds.12 mph62%29.86 "HgN/A
12:00 PM81 °FPassing clouds.8 mph84%29.89 "HgN/A
11:00 AM84 °FPassing clouds.2 mph58%29.92 "HgN/A
10:00 AM82 °FPassing clouds.8 mph58%29.95 "HgN/A
9:00 AM81 °FPassing clouds.12 mph66%29.95 "HgN/A
8:00 AM73 °FPassing clouds.6 mph83%29.92 "HgN/A
7:00 AM70 °FPassing clouds.6 mph83%29.92 "HgN/A
6:00 AM72 °FPassing clouds.3 mph83%29.89 "HgN/A
5:00 AM70 °FPassing clouds.6 mph88%29.89 "HgN/A
4:00 AM72 °FPassing clouds.7 mph83%29.89 "HgN/A
3:00 AM72 °FPassing clouds.6 mph83%29.89 "HgN/A
2:00 AM73 °FPassing clouds.6 mph78%29.89 "HgN/A
1:00 AM73 °FPassing clouds.6 mph83%29.89 "HgN/A
12:00 AM75 °FPassing clouds.3 mph78%29.92 "HgN/A
11:00 PM
Sat, Apr 30
75 °FPassing clouds.5 mph83%29.92 "HgN/A
10:00 PM75 °FPassing clouds.3 mph83%29.95 "HgN/A
Weather by CustomWeather, © 2016

See weather overviewHow to use our weather pages